This demonstration page uses our WeatherBlox Daily Observations layout. Learn more.

Left ArrowRight Arrow

Hourly Observations for February 26, 2022

Temp ( °F °C ) Dew Point ( °F °C ) Humidity (%) Winds ( mph kmh ) Pressure ( in mb ) Visibility ( mi km ) Precip ( " mm )
12:56 am 00:56 Clear 16 -8.9 4 -15.6 59 59 SSW 9 15 30.50 1033 10 16 0.00 0.00
1:56 am 01:56 Clear 16 -8.9 4 -15.6 59 59 SSW 12 19 30.49 1033 10 16 0.00 0.00
2:56 am 02:56 Clear 15 -9.4 4 -15.6 61 61 SW 12 19 30.48 1032 10 16 0.00 0.00
3:56 am 03:56 Clear 15 -9.4 4 -15.6 61 61 SW 7 11 30.46 1032 10 16 0.00 0.00
4:56 am 04:56 Clear 13 -10.6 3 -16.1 64 64 SSW 8 13 30.46 1031 10 16 0.00 0.00
5:56 am 05:56 Clear 14 -10 3 -16.1 61 61 WSW 8 13 30.45 1031 10 16 0.00 0.00
6:56 am 06:56 Clear 13 -10.6 3 -16.1 64 64 WSW 7 11 30.46 1032 10 16 0.00 0.00
7:56 am 07:56 Sunny 17 -8.3 4 -15.6 56 56 W 8 13 30.46 1032 10 16 0.00 0.00
8:56 am 08:56 Sunny 23 -5 7 -13.9 50 50 WSW 6 9 30.46 1032 10 16 0.00 0.00
9:56 am 09:56 Sunny 29 -1.7 9 -12.8 43 43 WSW 9 15 30.46 1031 10 16 0.00 0.00
10:56 am 10:56 Sunny 36 2.2 9 -12.8 32 32 SW 8 13 30.44 1031 10 16 0.00 0.00
11:56 am 11:56 Sunny 41 5 6 -14.4 23 23 SW 15 24 30.42 1030 10 16 0.00 0.00
12:56 pm 12:56 Sunny 44 6.7 4 -15.6 19 19 WSW 9 15 30.40 1029 10 16 0.00 0.00
1:56 pm 13:56 Sunny 45 7.2 4 -15.6 18 18 W 12 19 30.36 1028 10 16 0.00 0.00
2:56 pm 14:56 Sunny 47 8.3 7 -13.9 19 19 W 8 13 30.33 1027 10 16 0.00 0.00
3:56 pm 15:56 Sunny 47 8.3 7 -13.9 19 19 W 12 19 30.32 1027 10 16 0.00 0.00
4:56 pm 16:56 Sunny 47 8.3 7 -13.9 19 19 W 8 13 30.32 1027 10 16 0.00 0.00
5:56 pm 17:56 Sunny 44 6.7 2 -16.7 17 17 WNW 9 15 30.34 1027 10 16 0.00 0.00
6:56 pm 18:56 Clear 39 3.9 3 -16.1 22 22 W 7 11 30.36 1028 10 16 0.00 0.00
7:56 pm 19:56 Clear 34 1.1 1 -17.2 24 24 WNW 9 15 30.38 1029 10 16 0.00 0.00
8:56 pm 20:56 Clear 27 -2.8 2 -16.7 34 34 NNW 7 11 30.40 1029 10 16 0.00 0.00
9:56 pm 21:56 Clear 23 -5 2 -16.7 40 40 NW 9 15 30.42 1030 10 16 0.00 0.00
10:56 pm 22:56 Clear 21 -6.1 3 -16.1 45 45 WNW 9 15 30.41 1030 10 16 0.00 0.00
11:56 pm 23:56 Clear 21 -6.1 4 -15.6 47 47 WNW 9 15 30.40 1030 10 16 0.00 0.00

Powered by AerisWeather